www.pogodaiklimat.ru

Погода и климат >> Архив погоды >> Иран >> Birjand


ПОГОДА в Birjand

  • Прогноз погоды в Birjand
  • Монитор погоды в Birjand
  • Климат города

АРХИВ ПОГОДЫ в Birjand

Время (UTC), дата Ветер
(напр.,м/с)
 
Видим.   Явления Облачность Т
(С)
Тd
(С)
f
(%)
Тe
(С)
Тes
(С)
Комфортность P
(гПа)
Po
(гПа)
Тmin
(С)
Tmax
(С)
R
(мм)
R24
(мм)
S
(см)
03 9.07 В 2 10 км ясно +28.4 -6.0 10 +25 +29 комфорт 998.0 845.3 +18.4
06 9.07 СВ 11 10 км ясно +32.5 -9.5 6 +28 +28 жарко 998.0 845.2
09 9.07 СВ 12 10 км ясно +34.7 -13.4 4 +30 +30 жарко 997.9 844.3
12 9.07 СВ 10 10 км ясно +35.4 -9.7 5 +31 +31 жарко 997.6 843.6
15 9.07 СВ 9 6000 м пыль ясно +31.9 -4.9 9 +28 +28 жарко 997.5 844.8 +36.3
18 9.07 штиль 0 7000 м мгла ясно +27.5 -2.3 14 +25 +25 комфорт 999.1 846.1
21 9.07 СВ 5 7000 м мгла ясно +27.1 -0.8 16 +25 +25 комфорт 997.6 845.2
00 10.07 В 2 10 км ясно +24.6 -1.4 18 +23 +23 комфорт 997.7 844.9
03 10.07 СВ 7 10 км ясно +28.5 +3.3 20 +27 +28 жарко 998.5 845.8 +23.6
06 10.07 СВ 15 10 км ясно +32.5 +0.5 13 +29 +29 жарко 998.6 845.7
09 10.07 С 8 10 км ясно +35.1 -1.1 10 +31 +35 жарко 997.3 845.1
12 10.07 СВ 9 4000 м пыльный позёмок ясно +35.0 +1.6 12 +32 +32 жарко 997.4 844.6
15 10.07 СВ 10 4000 м пыльный позёмок ясно +31.9 +2.0 15 +29 +29 жарко 998.1 845.5 +36.1
18 10.07 СВ 6 5000 м пыльный позёмок ясно +29.5 +4.3 20 +28 +28 жарко 999.0 846.6
21 10.07 В 2 8000 м пыль ясно +26.7 +4.2 24 +31 +31 душно 997.7 846.2
00 11.07 СВ 9 8000 м пыль ясно +26.2 +2.9 22 +25 +25 комфорт 1000.9 848.1
03 11.07 СВ 8 7000 м пыль ясно +26.5 +1.9 20 +25 +25 комфорт 1000.3 846.8 +25.5
06 11.07 В 10 10 км ясно +31.0 +1.4 15 +28 +29 жарко 999.8 846.9
09 11.07 СВ 9 6000 м пыльный позёмок ясно +33.6 -0.9 11 +30 +32 жарко 998.0 845.3
12 11.07 СВ 10 7000 м пыльный позёмок ясно +34.8 -1.4 10 +31 +31 жарко 996.3 844.0
15 11.07 СВ 1 6000 м пыльный позёмок ясно +30.8 +1.4 15 +28 +28 жарко 997.5 844.2 +35.9
18 11.07 СВ 8 10 км ясно +27.5 +0.2 17 +25 +25 комфорт 998.6 845.4
21 11.07 В 3 10 км ясно +24.6 -2.6 16 +23 +23 комфорт 998.5 845.1
00 12.07 ЮВ 2 10 км ясно +24.0 -1.2 19 +23 +23 комфорт 997.8 844.7
03 12.07 СВ 8 10 км ясно +26.1 0.0 18 +24 +25 комфорт 999.0 845.3 +22.5
06 12.07 СВ 11 10 км ясно +30.1 -1.3 13 +27 +27 жарко 998.3 844.9
09 12.07 СВ 9 10 км ясно +32.3 -3.1 10 +29 +31 жарко 997.0 843.6
12 12.07 СВ 12 8000 м пыльный позёмок ясно +32.6 -4.2 9 +29 +29 жарко 996.3 842.9
15 12.07 СВ 9 7000 м пыльный позёмок ясно +29.7 -2.6 12 +27 +27 жарко 996.6 843.0 +33.6
18 12.07 СВ 3 8000 м мгла ясно +26.2 -4.3 13 +24 +24 комфорт 998.3 844.5
21 12.07 СВ 6 8000 м ясно +24.5 -4.6 14 +22 +22 комфорт 997.1 843.6
00 13.07 В 4 8000 м мгла ясно +20.7 -4.2 18 +20 +20 998.0 843.6
03 13.07 В 5 10 км ясно +25.6 -4.0 14 +23 +25 комфорт 997.3 843.4 +20.6
06 13.07 В 9 10 км ясно +30.5 -5.6 9 +27 +28 жарко 996.3 842.9
09 13.07 СВ 6 15 км ясно +33.6 -6.9 7 +29 +37 жарко 994.8 841.9
12 13.07 СВ 8 10 км ясно +34.5 -8.4 6 +30 +31 жарко 994.3 840.8
15 13.07 СВ 8 12 км ясно +31.1 -6.9 8 +27 +27 жарко 994.4 841.3 +35.6
18 13.07 СВ 5 10 км ясно +26.8 -4.0 13 +24 +24 комфорт 995.8 842.6
21 13.07 ЮВ 3 10 км ясно +26.0 -4.3 13 +23 +23 комфорт 995.4 842.8
00 14.07 В 5 10 км ясно +23.8 -3.7 16 +22 +22 комфорт 995.0 842.2
03 14.07 ЮВ 2 10 км ясно +25.2 -1.6 17 +23 +27 комфорт 995.6 842.3 +21.3
06 14.07 ЮВ 3 10 км ясно +31.9 -3.3 10 +28 +42 жарко 994.5 841.9
09 14.07 штиль 0 10 км ясно +35.1 -3.8 8 +31 +58 опасность
солнечного
удара
992.6 840.8
12 14.07 ЮВ 3 10 км ясно +36.6 -7.0 6 +32 +39 жарко 991.6 839.7
15 14.07 СВ 9 10 км ясно +34.2 -4.6 8 +30 +30 жарко 991.7 839.6 +37.7
18 14.07 В 6 6000 м мгла ясно +31.1 -4.2 10 +27 +27 жарко 992.5 841.2
21 14.07 штиль 0 5000 м мгла ясно +28.3 -1.8 14 +26 +26 жарко 992.5 841.3
00 15.07 штиль 0 8000 м мгла ясно +28.2 +0.7 17 +26 +26 жарко 991.9 841.1
03 15.07 ЮВ 3 8000 м мгла ясно +29.7 +0.4 15 +27 +30 жарко 993.0 841.9 +26.8
06 15.07 В 7 10 км ясно +34.6 -1.5 10 +31 +36 жарко 992.1 841.5
09 15.07 СВ 5 10 км ясно +36.7 -2.7 8 +33 +43 жарко 991.3 840.6
12 15.07 штиль 0 10 км ясно +37.0 -4.3 7 +33 +43 жарко 989.9 839.4
15 15.07 В 8 8000 м мгла ясно +35.0 -2.5 9 +31 +31 жарко 989.7 839.2 +38.4
18 15.07 СВ 5 7000 м мгла ясно +31.4 -3.7 10 +28 +28 жарко 990.7 840.3
21 15.07 ЮВ 2 10 км ясно +29.2 -4.4 11 +26 +26 жарко 991.2 840.7
00 16.07 ЮВ 2 10 км ясно +27.3 +1.6 19 +25 +25 комфорт 991.8 841.0

 

Местоположение метеостанции Birjand (Иран): широта 32.87 долгота 59.20 высота над уровнем моря 1491 м.

В архиве по умолчанию представлена погода в Birjand за последнюю неделю. Архивные данные за месяц целиком и за предыдущие месяцы, начиная с января 2011 года, Вы можете получить, выбрав интересующий диапазон дат из раскрывающегося списка и нажав кнопку "Ввод!".


*Определитесь, кто Вы:
робот инопланетянин человек

Внимание! Время в таблицах - всемирное. Для получения местного времени необходимо прибавить поправку, которая в Birjand равна 3.5 ч.

Смотрите также архив погоды в соседних городах и на ближайших метеорологических станциях:

Погода в Ferdous (Иран) (160 км)
Погода в Nehbandan (Иран) (168 км)
Погода в Tabas (Иран) (227 км)
Погода в Torbat-Heydarieh (Иран) (267 км)
Погода в Kashmar (Иран) (268 км)
Погода в Zabol (Иран) (295 км)
Погода в Herat (Афганистан) (318 км)
Погода в Kerman (Иран) (360 км)
Погода в Mashhad (Иран) (380 км)
Погода в Серхетабаде (Марыйский велаят, Туркменистан) (395 км)

Пояснения к столбцам:

Ветер - указаны скорость ветра в м/с - средняя за 10 мин, порывы в срок и между сроками (в фигурных скобках) и направление, откуда дует ветер: С - северный, СВ - северо-восточный, В - восточный, ЮВ - юго-восточный, Ю - южный, ЮЗ - юго-западный, З - западный, СЗ - северо-западный.
Видимость - горизонтальная дальность видимости в метрах или километрах. При видимости от 1 до 10 км при отсутствии осадков обычно наблюдается дымка, при ухудшении видимости до 1 км и менее - туман. В сухую погоду видимость может ухудшаться дымом, пылью или мглою.
Явления - указаны атмосферные явления, наблюдавшиеся в срок или в последний час перед сроком; фигурными скобками обозначены явления, наблюдавшиеся между сроками (за 1-3 часа до срока); квадратными скобками обозначены град или гололедные отложения с указанием их диаметра в мм.
Облачность - указаны через наклонную черту общая и нижняя облачность в баллах и высота нижней границы облаков в метрах; квадратными скобками обозначены формы облаков: Ci - перистые, Cs - перисто-слоистые, Cc - перисто-кучевые, Ac - высококучевые, As - высокослоистые, Sc - слоисто-кучевые, Ns - слоисто-дождевые, Cu - кучевые, Cb - кучево-дождевые. Подробнее классификацию облаков см. в Атласе облаков (PDF).
T - Температура воздуха - температура, измеренная на высоте 2 м над землей.
Td - Температура точки росы - температура, при понижении до которой содержащийся в воздухе водяной пар достигнет насыщения.
f - Относительная влажность воздуха - влажноcть воздуха, измеренная на высоте 2 м над землей.
Te - Эффективная температура - температура, которую ощущает одетый по сезону человек в тени. Характеристика душности погоды. При расчете учитывается влияние влажности воздуха и скорости ветра на теплоощущения человека.
Tes - Эффективная температура на солнце - температура, которую ощущает человек, с поправкой на солнечный нагрев. Характеристика знойности погоды. Зависит от высоты солнца над горизонтом, облачности и скорости ветра. Ночью, в пасмурную погоду, а также при ветре 12 м/с и более поправка равна нулю.
P - Атмосферное давление - приведенное к уровню моря атмосферное давление.
Po - Атмосферное давление - измеренное на уровне метеостанции атмосферное давление.
Tmin - Минимальная температура - минимум температуры воздуха на высоте 2 м над землей.
Tmax - Максимальная температура - максимум температуры воздуха на высоте 2 м над землей.
R - Количество осадков - Количество выпавших осадков за период времени, мм. При наведении курсора мыши на число - период времени, за который выпало указанное количество осадков.
R24 - Количество осадков - Количество выпавших осадков за 24 часа, мм.
S - Снежный покров - Высота снежного покрова, см. При наведении курсора мыши на число - состояние снежного покрова и степень покрытия местности в баллах.